sat.trackr.live / text

‹ back to catalog

STARLINK-11188 [DTC]

NORAD 60722 · 2024-152C

PAYLOAD ACTIVE UNKNOWN

§ Identity

Operator
Country
US
Launch date
2024-08-28
Launch site
AFETR
Launch vehicle
Mass (kg)
RCS (m²)

Purposes: comms

External: N2YO · Heavens-Above · Gunter

§ Orbital elements

Epoch: 2026-05-25T03:57:44.474112Z

Period
91.74 min
Inclination
53.1584°
Eccentricity
0.0000948
Mean motion
15.69707801 rev/d
Perigee alt
359.1 km
Apogee alt
360.4 km
Semi-major
6,737.9 km
B*
5.6957e-6
RAAN
99.4633°
Arg perigee
65.5836°
Mean anomaly
294.5281°
Rev number
10,096

§ Raw data

STARLINK-11188 [DTC]1 60722U 24152C   26145.16509808  .00000102  00000+0  56957-5 0  99952 60722  53.1584  99.4633 0000948  65.5836 294.5281 15.69707801100964

JSON: /api/v1/satellites/60722 · /tle

For live sub-satellite position, see the globe view (requires WebGL).

§ Visibility from observer

Set your observer location to see the next 7 days of passes ≥ 10°. The values pass through the URL so the page stays shareable.

No JS? Fill the form by hand. The geolocation button needs JavaScript.